sat.trackr.live / text

‹ back to catalog

STARLINK-32371

NORAD 60916 · 2024-154P

PAYLOAD ACTIVE UNKNOWN

§ Identity

Operator
Country
US
Launch date
2024-08-31
Launch site
AFETR
Launch vehicle
Mass (kg)
RCS (m²)

Purposes: comms

External: N2YO · Heavens-Above · Gunter

§ Orbital elements

Epoch: 2026-05-25T02:23:30.090912Z

Period
94.11 min
Inclination
53.1608°
Eccentricity
0.0000939
Mean motion
15.30203920 rev/d
Perigee alt
474.6 km
Apogee alt
475.8 km
Semi-major
6,853.3 km
B*
-3.7079e-5
RAAN
288.9256°
Arg perigee
100.3355°
Mean anomaly
259.7752°
Rev number
9,803

§ Raw data

STARLINK-323711 60916U 24154P   26145.09965383 -.00001457  00000+0 -37079-4 0  99972 60916  53.1608 288.9256 0000939 100.3355 259.7752 15.30203920 98037

JSON: /api/v1/satellites/60916 · /tle

For live sub-satellite position, see the globe view (requires WebGL).

§ Visibility from observer

Set your observer location to see the next 7 days of passes ≥ 10°. The values pass through the URL so the page stays shareable.

No JS? Fill the form by hand. The geolocation button needs JavaScript.